User: anonymous   Login
Location: Dorchester
(45.9077°N, 64.5103°W)
Time: 23:25:06
(UTC+00:00)
Language:

Hubble Space Telescope - Orbit

View from above orbital plane
View from above orbital plane
View from above satellite
View from above satellite

Ground track
Ground track

The orbit data is extracted from the following two-line orbital elements,

1 20580U 90037B   22028.40711111  .00001306  00000-0  67519-4 0  9996
2 20580  28.4714  16.3215 0002420 330.5415 157.5411 15.09975255545028
Epoch (UTC): 28 January 2022 09:46:14
Eccentricity: 0.0002420
inclination: 28.4714°
perigee height: 534 km
apogee height: 538 km
right ascension of ascending node: 16.3215°
argument of perigee: 330.5415°
revolutions per day: 15.09975255
mean anomaly at epoch: 157.5411°
orbit number at epoch: 54502

The dashed part of the orbit path shows where the satellite is in the earth's shadow,  

DLR